SCOUT X-4 DEB, 805

Orbit data source: Space-Track

SCOUT X-4 DEB, 805 is space debris in LEO originally from a launch on Thu, 04 Jun 1964 UTC launched from the Air Force Western Test Range (AFWTR). Debris objects in space refer to the collection of defunct objects orbiting the Earth. Examples of debris include non-operational satellites, rocket bodies, and fragments generated from explosions, collisions, or faulty payload assembly.

Loading next visibility...
Identifier
805, 1964-026B
Orbit
LEO
Last TLE update
2 days ago
Origin
Manufacturer
Unknown
Mission
Spacecraft
Bus & Motor
Unknown
Mass
Unknown
Launch date (UTC)
1964-06-04 (61 years ago)
Launch vehicle
Unknown
Launch site
Air Force Western Test Range (AFWTR)
Object type
Payload
Rocket body
Debris
Shape & HBR
Unknown
Radar Cross Section
Small (<0.1 m²)

Expand to show TLE details & history

TLE from 2 days ago
0 SCOUT X-4 DEB
1 00805U 64026B   25127.82844940  .00002067  00000-0  72630-3 0  9993
2 00805  89.8664 335.4361 0032387  97.3492 263.1389 14.34401831131891
Epoch: 2025-05-07T19:52Z
Definitive object data (Epoch: 2025-05-07T19:52:58.028Z)
Latitude
Longitude
171.28662°
Altitude
782.973 km
Speed
7.461 km/s
True Right ascension
22h 21m 44s
True Declination
0° 00' 00"
Sunlit
Object was in daylight at TLE epoch
Visualization TLE readout
Latitude
51.31443°
Longitude
171.42104°
Altitude
767.456 km
Speed
7.485 km/s
Apparent Right ascension
19h 27m 47s
Apparent Declination
11° 53' 47"
Sunlit
Object is in daylight
Visualization observer readout
Local Sidereal Time
04:51:32
Azimuth
316.317° NNW
Elevation
-26.774°
Doppler factor
1
Orbital elements
Apogee altitude
797.146 km
Perigee altitude
750.819 km
Semi-major axis
7,152.12 km
Eccentricity
0.0032387
Inclination
89.8664°
RAAN
335.4361°
Arg. of periapsis
97.3492°
True anomaly
262.77061°
Mean anomaly
263.1389°
Eccentric anomaly
262.95474°
Mean motion
3.58832 °/min
BSTAR
0.0007263
Orbital period
100.33 mins
Loading maneuver chart data...
Loading SW <> Apogee altitude chart data...
Loading historical data...
Loading historical data...
Loading historical data...
Loading historical data...
Loading historical data...
Loading historical data...
Loading historical data...

SCOUT X-4 DEB Visibility forecast

Observer location: undefined°, undefined°

Span
Click to sort rows by Start time (UTC) header in descending order
Start Az.
Max El. time (UTC)
Max El. Az.
Max El.
End time (UTC)
End Az.
10 mins2025-05-10 02:01:22.558Z3.125° NNE2025-05-10 02:06:22.558Z83.673° E44.896°2025-05-10 02:11:22.558Z181.556° SSW
7 mins2025-05-10 13:19:22.558Z127.491° SE2025-05-10 13:22:22.558Z72.302° E27.581°2025-05-10 13:26:22.558Z19.113° NNE
7 mins2025-05-10 14:59:22.558Z229.787° WSW2025-05-10 15:02:22.558Z277.233° WNW24.061°2025-05-10 15:06:22.558Z331.743° NNW
|